Regional Weather Roundup
Issued by NWS Wakefield, VA

Home | Current Version | Previous Version | Text Only | Print | Product List | Glossary On
Versions: 1 2 3 4 5 6 7 8 9 10 11 12 13 14 15 16 17 18 19 20 21 22 23 24 25 26 27 28 29 30 31 32 33 34 35 36 37 38 39 40 41 42 43 44 45 46 47 48 49 50
000
ASUS41 KAKQ 040910
RWRAKQ

REGIONAL WEATHER ROUNDUP
NATIONAL WEATHER SERVICE WAKEFIELD VA
400 AM EST WED MAR 04 2015

Note: "fair" indicates few or no clouds below 12,000 feet with no
significant weather and/or obstructions to visibility. * = Denotes
station may not report precipitation (e.g., rain,snow,etc.),
thunder or fog.

VAZ042-051-052>054-056-041000-
NORTHERN VIRGINIA

CITY           SKY/WX    TMP DP  RH WIND       PRES   REMARKS
WASH NATIONAL  LGT RAIN  42  34  73 S5        29.87R
DULLES         CLOUDY    36  33  89 S6        29.82F
FORT BELVOIR   LGT RAIN  39  36  87 W6        29.88R
QUANTICO       LGT RAIN  43  36  76 N8        29.88R
FREDERICKSBRG* CLOUDY    44  40  86 SW13G18   29.84R
STAFFORD*      CLOUDY    41  37  84 W5        29.90R
WARRENTON      LGT RAIN  39  39 100 CALM      29.86R
CULPEPER*      DRIZZLE   39  37  93 CALM      29.85R
MANASSAS*      CLOUDY    37  37 100 S5        29.87R
LEESBURG*      CLOUDY    36  36 100 S7        29.83S
WINCHESTER     CLOUDY    43  37  81 SW8       29.80S
FRONT ROYAL*   CLOUDY    41  41 100 S7        29.80F
LURAY*         CLOUDY    50  48  93 SE6       29.82R
$$

VAZ048-049-060>072-079>083-041000-
CENTRAL AND SOUTH CENTRAL VIRGINIA

CITY           SKY/WX    TMP DP  RH WIND       PRES   REMARKS
RICHMOND       CLOUDY    48  45  89 SW15      29.88F
CHESTERFIELD*  CLOUDY    46  36  66 SW7       29.89F
PETERSBURG*    CLOUDY    46  45  97 SW6       29.92S FOG
HANOVER        CLOUDY    46  43  89 SW8       29.88F
TAPPAHANNOCK*  CLOUDY    45  41  86 SW12G20   29.86F
QUINTON*       CLOUDY    46  44  95 S8        29.88F
CHARLOTTSVILLE CLOUDY    39  36  89 SW8       29.82F
GORDONSVILLE*  CLOUDY    38  36  91 SW12      29.82F
ORANGE*        LGT RAIN  41  37  87 S9        29.84F
LOUISA*        CLOUDY    41  39  93 SW6       29.82F
BUMPASS*       CLOUDY    41  38  91 SW8       29.85F
FARMVILLE*     CLOUDY    45  45 100 SW9       29.87S
CREWE*         CLOUDY    47  45  92 SW8G20    29.88F
FORT PICKETT*  CLOUDY    44  44  99 SW17G23   29.89F
CHASE CITY*    CLOUDY    45  45 100 SW7       29.92F
CLARKSVILLE*   CLOUDY    43  43 100 SW6       29.94S
SOUTH HILL*    CLOUDY    44  44  99 SW10      29.99S
LAWRENCEVILLE* CLOUDY    43  43 100 SW7       29.93S
EMPORIA*       CLOUDY    41  41 100 S5        29.95F FOG
$$

VAZ088>098-041000-
SOUTHEAST VIRGINIA

CITY           SKY/WX    TMP DP  RH WIND       PRES   REMARKS
NORFOLK        CLOUDY    47  45  93 SW21G28   29.93F FOG
VIRGINIA BEACH CLOUDY    49  46  90 SW15G24   29.94F FOG
NORFOLK NAVAL  CLOUDY    47  42  83 SW12      29.95F FOG
WEST POINT*    CLOUDY    47  45  91 SW8       29.91S
SALUDA*        CLOUDY    45  44  96 SW9G17    29.88F
NEWPORT NEWS   CLOUDY    45  42  89 SW16      29.92F FOG
LANGLEY AFB    CLOUDY    43  42  96 SW16G24   29.91F FOG
FORT EUSTIS    CLOUDY    42  42  99 VRB5      29.90F
WILLIAMSBURG*  CLOUDY    46  45  93 SW7       29.92F
HR EXEC AP*    CLOUDY    45  43  93 SW12      29.98S
FRANKLIN*      FOG       42  42  99 SW10G16   29.95F VSB 3/4
WAKEFIELD      CLOUDY    43  42  97 SW9       29.93F FOG
$$

VAZ020-022-025-037-045-041000-
WEST CENTRAL AND SOUTHWEST VIRGINIA

CITY           SKY/WX    TMP DP  RH WIND       PRES   REMARKS
STAUNTON*      RAIN      42  40  90 N10       29.84R
WAYNESBORO*    CLOUDY    46  45  95 W5        29.79F
HOT SPRINGS VA RAIN      51  51 100 W30G40    29.79F VSB<1/4
LYNCHBURG      CLOUDY    40  40 100 SW6       29.88F FOG
DANVILLE       CLOUDY    43  41  93 SW8       29.94F FOG
SOUTH BOSTON*  CLOUDY    42  41  95 SW7       29.94F
MARTINSVILLE   CLOUDY    41  41 100 SW5       29.96S FOG
ROANOKE        MOCLDY    37  35  92 E3        29.88F FOG
BLACKSBURG     CLOUDY    40  39  97 CALM      29.90F FOG
DUBLIN*        CLOUDY    40  40 100 CALM      29.89F FOG
MARION*        FOG       46  45  95 W8        29.93R VSB 1/4
HILLSVILLE*    PTCLDY    49  48  95 S7        29.90F
RICHLANDS*     RAIN      52  50  93 W13G25    29.90S
WISE*          LGT RAIN  52  52 100 SW20G29   29.89F VSB 1
ABINGDON*      DRIZZLE   45  45 100 SW3       29.92S
$$

MDZ021>025-VAZ099-100-041000-
SOUTHERN MARYLAND AND THE DELMARVA PENINSULA

CITY           SKY/WX    TMP DP  RH WIND       PRES   REMARKS
PATUXENT RIVER MOCLDY    45  41  86 SW17G25   29.82S
BAY BRIDGE APT   N/A     36  36 100 S7        29.84F
LEONARDTOWN    CLOUDY    43  39  87 SW12G22   29.85R
DOVER          LGT RAIN  41  41 100 W7        29.85R
GEORGETOWN     CLOUDY    43  41  93 W9        29.83R
EASTON         RAIN      42  42 100 W3        29.89R
CAMBRIDGE      CLOUDY    43  39  87 CALM      29.85R
SALISBURY      CLOUDY    47  43  86 SW20G29   29.82F
OCEAN CITY     CLOUDY    46  44  93 SW20G30   29.83F
WALLOPS ISLAND CLOUDY    49  48  97 W13G26    29.87S
ACCOMACK*      CLOUDY    45  41  87 SW18G29   29.89S
$$

NCZ012>017-030>032-041000-
NORTH CENTRAL AND EASTERN NORTH CAROLINA

CITY           SKY/WX    TMP DP  RH WIND       PRES   REMARKS
ROANOKE RAPIDS FOG       41  41 100 SW14      29.97F VSB 1/2
RALEIGH        FOG       40  38  93 SW10      30.00F VSB 1/8
ELIZABETH CITY FOG       49  48  97 SW9       29.98F VSB 1/2
AHOSKIE*       FOG       41  40  98 S5        29.98F VSB 1/2
EDENTON*       FOG       44  44  99 SW7       29.99F VSB 1/4
CURRITUCK*     FOG       49  48  95 SW9       29.98F VSB 1
KILL DEVIL HLS CLOUDY    60  60 100 SW13G21   29.97F FOG
MANTEO         FOG       57  57 100 SW21G26   29.99S VSB 3/4
CAPE HATTERAS  FOG       54  54 100 SW12      30.02F VSB 1/4
TARBORO*       FOG       42  41  95 SW6       30.01F VSB 1/2
GOLDSBORO      FOG       42  42 100 S6        30.00F VSB 1/4
WASHINGTON     FOG       45  45  99 SW7       30.02F VSB 1/2
GREENVILLE     FOG       43  43 100 SW6       30.03F VSB 3/4
NEW BERN       CLOUDY    58  57  97 SW10G20   30.03F
WILMINGTON     FOG       52  52 100 SW8       30.06F VSB 1/2
$$

VAZ048-041000-
ELSEWHERE

CITY           SKY/WX    TMP DP  RH WIND       PRES   REMARKS
HARRISBURG PA  CLOUDY    33  30  88 CALM      29.80R FOG
BALTIMORE      LGT RAIN  37  35  92 SW7       29.81F
ANNAPOLIS      LGT RAIN  39  36  89 VRB3      29.84S FOG
ANDREWS AFB    LGT RAIN  39  36  89 NW6       29.85R
PHILADELPHIA   CLOUDY    35  33  92 SW12      29.81F FOG
HENDERSON NC   FOG       42  41  95 SW13G18   29.95F VSB 1
GREENSBORO     FOG       41  41 100 SW12      29.95F VSB 1/4
ROCKY MOUNT    FOG       42  41  96 SW7       30.01S VSB 1/2
$$

VAZ100-041000-
MARINE

STATION/POSITION TIME  TEMP    WIND        PRES    WAVE   SWELL
                       AIR SEA DIR/SP/G            HT/PER HT/PER
                 (UTC) (F)     (DEG/KT/KT) (MB)    (FT/S) (FT/S)
BRANDYWINE LGT   0900   39 31  300/ 17/ 20 1010.6R
CAPE MAY NJ      0900   37 34  330/  9/ 15 1010.5R
LEWES DE         0900   45 30  260/ 15/ 21 1009.1F
15NM E FENWICK I 0900   38 35              1008.9F   5/ 7
OCEAN-CITY-INLET 0900   46 34  250/ 16/ 21 1009.4S
WACHAPREAGUE VA  0900   46 36  250/ 12/ 18 1011.9F
THOMAS POINT MD  0900   38 32  340/  3/  4 1012.1R
COVE POINT MD    0900   44     250/ 24/ 29 1009.0F
SOLOMONS ISLAND  0900      33                N/A
BISHOPS HEAD MD  0900   40 33  220/ 18/ 19 1009.5S
CAMBRIDGE MD     0900   42 32  300/  4/  6 1010.7R
LEWISETTA VA     0900   44 33  230/ 12/ 14 1010.1F
RAPPAHANNOCK LGT 0900          190/ 16/ 17 1012.8F
STINGRAY PT      0900   40     230/ 10/ 12   N/A
YORK RVR RNG VA  0900   42     240/ 15/ 17 1012.1F
YORKTOWN VA      0900   44 34  220/ 14/ 17 1012.2F
DOMINION TERM VA 0900   40     230/ 13/ 16 1013.6S
KIPTOPEKE VA     0800      38  210/  7/ 10   N/A
CHES BAY BRIDGE  0900   44 34  210/ 14/ 16 1013.1F
CAPE HENRY VA    0900   48     230/ 13/ 23 1012.4R
CHESAPEAKE LGHT  0800   44     230/ 24/ 26 1014.0F
WILLOUBY STN VA  0900   42     230/ 16/ 18 1013.8F
S CRANEY ISL VA  0900          210/ 12/ 16 1013.4F
CAPE HENRY BUOY  0900      35                N/A     3/ 6
1ST LANDING BUOY 0900   41     240/ 14/ 16 1013.4R
OFFSHORE WE BUOY 0900      36                N/A     5/ 6   2/ 8
64NM E OF VA BCH 0900   57 56  210/ 21/ 25 1013.2F   6/ 7   2/13
DUCK PIER NC     0900   53 35  210/ 13/ 15 1014.0F
44100 DUCK FRF   0800      37                N/A     5/ 6
44056 DUCK FRF   0900      35                N/A     4/ 7
OREGON INLET NC  0900   49 42  210/ 16/ 19 1015.7F
HATTERAS NC      0900   56 44  210/ 10/ 13 1016.9F
CAPE LOOKOUT NC  0900   58     220/ 10/ 12 1017.7F
$$



USA.gov is the U.S. government's official web portal to all federal, state and local government web resources and services.